Simultaneous Nadir Overpasses (SNOs) Predictions

Prediction of SNOs between GOES-16 and NPP Satellite Orbit:

Table of predicted SNOs for the next 14.0 days since TLE Epoch: 3/26/2022
Index Date Time (GOES-16) GOES-16 Lat,Lon NPP Lat,Lon Distance(km) Time Diff (sec)
1 03/26/2022 06:17:27 -0.06, -75.21 -0.47, -73.45 200.41 80
2 03/27/2022 18:39:22 0.05, -75.22 -0.77, -78.75 402.33 80
3 03/28/2022 18:23:17 0.05, -75.23 0.26, -74.22 114.74 80
4 03/30/2022 06:45:05 -0.04, -75.23 0.93, -79.49 485.38 80
5 03/31/2022 06:23:40 -0.04, -75.24 -0.10, -74.96 32.03 80
6 04/02/2022 18:26:52 0.04, -75.28 -0.03, -75.74 51.39 80
7 04/03/2022 18:10:47 0.04, -75.30 0.95, -71.20 466.82 80
8 04/05/2022 06:32:34 -0.04, -75.31 0.24, -76.47 131.87 80
9 04/06/2022 06:11:09 -0.04, -75.33 -0.80, -71.94 386.31 80
10 04/07/2022 18:33:06 0.03, -75.36 -0.36, -77.25 214.14 80
11 04/08/2022 18:17:00 0.03, -75.38 0.62, -72.71 304.52 80
